GW0281 Weather Reports


time (UTC)temp
C
wind
direction
speed
KPH
gust
KPH
rain 1hr
cm
rain 24hr
cm
rain mn
cm
humidity
%
barometer
mb
20260906155017 24 136 11.3 16.1 0.00 0.00 0.00 84 1020.0
20260906154512 25 129 8.0 20.9 0.00 0.00 0.00 84 1019.9
20260906154010 23 144 11.3 12.9 0.00 0.00 0.00 87 1019.8
20260906153510 23 134 8.0 12.9 0.00 0.00 0.00 85 1019.9
20260906153005 25 49 9.7 14.5 0.00 0.00 0.00 81 1019.7
20260906152459 24 84 8.0 16.1 0.00 0.00 0.00 85 1019.9
20260906151958 23 59 0.0 12.9 0.00 0.00 0.00 87 1019.8
20260906151454 23 141 4.8 12.9 0.00 0.00 0.00 86 1019.9
20260906150950 23 118 0.0 12.9 0.00 0.00 0.00 87 1019.7
20260906150445 23 137 8.0 11.3 0.00 0.00 0.00 88 1019.6
20260906145944 22 70 3.2 8.0 0.00 0.00 0.00 90 1019.8
20260906145444 23 125 3.2 14.5 0.00 0.00 0.00 88 1019.7
20260906144938 22 81 4.8 14.5 0.00 0.00 0.00 91 1019.4
20260906144433 22 120 4.8 9.7 0.00 0.00 0.00 92 1019.4
20260906143929 22 107 4.8 12.9 0.00 0.00 0.00 93 1019.6
20260906143424 22 83 11.3 14.5 0.00 0.00 0.00 92 1019.5
20260906142920 22 99 3.2 9.7 0.00 0.00 0.00 93 1019.4
20260906142419 21 113 3.2 16.1 0.00 0.00 0.00 94 1019.2
20260906141914 21 112 8.0 16.1 0.00 0.00 0.00 94 1019.3
20260906141414 21 65 6.4 14.5 0.00 0.00 0.00 94 1019.4
20260906140908 21 91 3.2 17.7 0.00 0.00 0.00 95 1019.5
20260906140403 21 77 12.9 14.5 0.00 0.00 0.00 95 1019.3
20260906135900 21 95 11.3 14.5 0.00 0.00 0.00 95 1019.4
20260906135354 21 86 11.3 12.9 0.00 0.00 0.00 95 1019.3
20260906134850 21 44 3.2 9.7 0.00 0.00 0.00 96 1019.5
20260906134345 21 80 6.4 11.3 0.00 0.00 0.00 96 1019.1
20260906133841 21 77 6.4 12.9 0.00 0.00 0.00 96 1019.3
20260906133336 20 273 0.0 11.3 0.00 0.00 0.00 97 1019.0
20260906132831 20 70 3.2 17.7 0.00 0.00 0.00 97 1019.3
20260906132327 20 85 4.8 14.5 0.00 0.00 0.00 97 1019.1
20260906131822 20 82 14.5 20.9 0.00 0.00 0.00 97 1018.9
20260906131317 20 90 8.0 14.5 0.00 0.00 0.00 98 1019.1
20260906130813 20 69 4.8 9.7 0.00 0.00 0.00 98 1019.2
20260906130313 20 78 8.0 11.3 0.00 0.00 0.00 98 1019.2
20260906125812 20 106 4.8 14.5 0.00 0.00 0.00 99 1019.0
20260906125309 20 85 0.0 8.0 0.00 0.00 0.00 99 1019.1
20260906124804 20 93 1.6 11.3 0.00 0.00 0.00 99 1019.0
20260906124300 20 83 9.7 11.3 0.00 0.00 0.00 99 1019.3
20260906123759 20 73 3.2 11.3 0.00 0.00 0.00 99 1019.3
20260906123254 19 82 6.4 9.7 0.00 0.00 0.00 99 1019.0
20260906122754 19 352 0.0 8.0 0.00 0.00 0.00 99 1019.1
20260906122249 19 81 4.8 9.7 0.00 0.00 0.00 99 1019.3
20260906121745 19 68 1.6 6.4 0.00 0.00 0.00 99 1019.0
20260906121241 19 65 3.2 4.8 0.00 0.00 0.00 99 1019.1
20260906120737 18 54 4.8 6.4 0.00 0.00 0.00 99 1018.9
20260906120234 18 57 3.2 9.7 0.00 0.00 0.00 99 1018.9
20260906115729 18 47 4.8 9.7 0.00 0.00 0.00 99 1018.9
20260906115224 18 99 8.0 9.7 0.00 0.00 0.00 99 1019.0
20260906114723 19 79 3.2 8.0 0.00 0.00 0.00 99 1018.7
20260906114218 18 73 4.8 8.0 0.00 0.00 0.00 99 1018.7
20260906113713 18 48 3.2 9.7 0.00 0.00 0.00 99 1018.6
20260906113212 18 48 3.2 8.0 0.00 0.00 0.00 99 1018.3
20260906112707 18 78 3.2 8.0 0.00 0.00 0.00 99 1018.3
20260906112204 18 76 6.4 9.7 0.00 0.00 0.00 99 1018.2
20260906111703 19 23 1.6 12.9 0.00 0.00 0.00 99 1018.1
20260906111158 19 27 3.2 9.7 0.00 0.00 0.00 99 1018.0
20260906110653 19 66 6.4 9.7 0.00 0.00 0.00 99 1017.9
20260906110148 19 12 0.0 11.3 0.00 0.00 0.00 99 1018.0
20260906105642 19 105 3.2 11.3 0.00 0.00 0.00 99 1018.0
20260906105138 19 79 3.2 11.3 0.00 0.00 0.00 99 1017.8
20260906104638 19 78 6.4 8.0 0.00 0.00 0.00 99 1017.7
20260906104137 19 83 3.2 11.3 0.00 0.00 0.00 99 1017.7
20260906103635 19 48 3.2 12.9 0.00 0.00 0.00 99 1017.5
20260906103130 19 352 3.2 9.7 0.00 0.00 0.00 99 1017.5
20260906102626 19 66 6.4 8.0 0.00 0.00 0.00 99 1017.6
20260906102120 20 92 0.0 16.1 0.00 0.00 0.00 99 1017.3
20260906101615 20 116 1.6 14.5 0.00 0.00 0.00 99 1017.2
20260906101115 20 69 8.0 17.7 0.00 0.00 0.00 99 1017.2
20260906100610 20 91 6.4 16.1 0.00 0.00 0.00 99 1017.0
20260906100105 20 59 6.4 11.3 0.00 0.00 0.00 99 1017.3
20260906095604 20 99 4.8 11.3 0.00 0.00 0.00 99 1017.2
20260906095059 20 95 4.8 11.3 0.00 0.00 0.00 99 1017.1
20260906094558 20 93 6.4 11.3 0.00 0.00 0.00 99 1017.1
20260906094054 20 69 6.4 14.5 0.00 0.00 0.00 99 1017.2
20260906093550 20 83 6.4 14.5 0.00 0.00 0.00 99 1017.2
20260906093045 20 86 3.2 11.3 0.00 0.00 0.00 99 1017.2
20260906092540 20 71 6.4 9.7 0.00 0.00 0.00 99 1017.2
20260906092036 20 48 1.6 8.0 0.00 0.00 0.00 99 1017.2
20260906091531 20 96 3.2 8.0 0.00 0.00 0.00 99 1017.4
20260906091027 20 103 4.8 8.0 0.00 0.00 0.00 99 1017.4
20260906090522 20 80 1.6 8.0 0.00 0.00 0.00 99 1017.3
20260906090017 20 62 0.0 4.8 0.00 0.00 0.00 99 1017.4
20260906085516 20 47 1.6 4.8 0.00 0.00 0.00 99 1017.3
20260906085015 20 62 4.8 9.7 0.00 0.00 0.00 99 1017.2
20260906084510 20 97 1.6 8.0 0.00 0.00 0.00 99 1017.3
20260906084009 20 65 3.2 8.0 0.00 0.00 0.00 99 1017.4
20260906083505 20 89 3.2 8.0 0.00 0.00 0.00 99 1017.4
20260906083004 20 73 4.8 8.0 0.00 0.00 0.00 99 1017.6
20260906082500 20 52 1.6 8.0 0.00 0.00 0.00 99 1017.2
20260906081955 20 55 1.6 4.8 0.00 0.00 0.00 99 1017.5
20260906081450 20 89 0.0 9.7 0.00 0.00 0.00 99 1017.5
20260906080946 20 22 3.2 8.0 0.00 0.00 0.00 99 1017.4
20260906080442 20 61 4.8 9.7 0.00 0.00 0.00 99 1017.3
20260906075937 20 86 3.2 8.0 0.00 0.00 0.00 99 1017.3
20260906075432 20 88 0.0 6.4 0.00 0.00 0.00 98 1017.2
20260906074927 20 81 6.4 9.7 0.00 0.00 0.00 98 1017.3
20260906074427 20 61 6.4 12.9 0.00 0.00 0.00 98 1017.2
20260906073926 20 79 4.8 6.4 0.00 0.00 0.00 98 1017.3
20260906073421 20 84 0.0 8.0 0.00 0.00 0.00 97 1017.3
20260906072917 21 77 4.8 12.9 0.00 0.00 0.00 97 1017.2
20260906072412 21 24 3.2 14.5 0.00 0.00 0.00 97 1017.3
20260906071908 21 71 3.2 8.0 0.00 0.00 0.00 97 1017.6
20260906071403 21 57 4.8 12.9 0.00 0.00 0.00 96 1017.5
20260906070859 21 65 6.4 17.7 0.00 0.00 0.00 96 1017.3
20260906070355 21 31 4.8 16.1 0.00 0.00 0.00 95 1017.6
20260906065850 21 81 4.8 14.5 0.00 0.00 0.00 95 1017.7
20260906065344 21 71 4.8 11.3 0.00 0.00 0.00 95 1017.8
20260906064840 21 84 8.0 14.5 0.00 0.00 0.00 95 1017.7
20260906064336 21 83 8.0 17.7 0.00 0.00 0.00 95 1017.8
20260906063831 21 84 8.0 14.5 0.00 0.00 0.00 96 1017.5
20260906063326 21 79 16.1 17.7 0.00 0.00 0.00 96 1017.6
20260906062821 21 84 6.4 14.5 0.00 0.00 0.00 96 1017.4
20260906062320 22 90 6.4 14.5 0.00 0.00 0.00 96 1017.3
20260906061816 22 68 6.4 17.7 0.00 0.00 0.00 96 1017.3
20260906061312 22 99 4.8 14.5 0.00 0.00 0.00 96 1017.1
20260906060807 22 93 4.8 14.5 0.00 0.00 0.00 95 1017.4
20260906060305 22 75 6.4 20.9 0.00 0.00 0.00 95 1017.7
20260906055800 22 53 4.8 20.9 0.00 0.00 0.00 95 1017.3
20260906055255 22 66 9.7 32.2 0.00 0.00 0.00 96 1017.6
20260906054750 22 77 3.2 8.0 0.00 0.00 0.00 97 1017.7
20260906054246 22 67 4.8 17.7 0.00 0.00 0.00 96 1017.7
20260906053743 22 85 4.8 11.3 0.00 0.00 0.00 96 1017.6
20260906053238 22 89 8.0 14.5 0.00 0.00 0.00 96 1017.5
20260906052733 22 94 4.8 11.3 0.00 0.00 0.00 96 1017.5
20260906052229 22 101 3.2 11.3 0.00 0.00 0.00 96 1017.4
20260906051726 22 80 8.0 17.7 0.00 0.00 0.00 96 1017.4
20260906051225 22 93 3.2 11.3 0.00 0.00 0.00 96 1017.4
20260906050720 22 70 6.4 11.3 0.00 0.00 0.00 95 1017.2
20260906050216 22 89 11.3 14.5 0.00 0.00 0.00 95 1017.4
20260906045714 22 104 4.8 11.3 0.00 0.00 0.00 95 1017.3
20260906045209 23 95 6.4 8.0 0.00 0.00 0.00 94 1017.4
20260906044705 23 38 0.0 6.4 0.00 0.00 0.00 94 1017.4
20260906044200 23 49 0.0 6.4 0.00 0.00 0.00 93 1017.5
20260906043656 23 178 0.0 8.0 0.00 0.00 0.00 93 1017.4
20260906043152 23 48 4.8 8.0 0.00 0.00 0.00 93 1017.3
20260906042651 23 16 1.6 8.0 0.00 0.00 0.00 92 1016.9
20260906042145 23 35 4.8 12.9 0.00 0.00 0.00 92 1017.0
20260906041641 23 51 4.8 8.0 0.00 0.00 0.00 92 1016.7
20260906041136 23 61 6.4 12.9 0.00 0.00 0.00 92 1016.6
20260906040631 23 14 3.2 12.9 0.00 0.00 0.00 92 1016.7
20260906040127 23 0 0.0 12.9 0.00 0.00 0.00 92 1016.6
20260906035622 23 60 3.2 8.0 0.00 0.00 0.00 92 1016.5
20260906035117 23 44 1.6 4.8 0.00 0.00 0.00 92 1016.7
20260906034612 23 4 4.8 6.4 0.00 0.00 0.00 92 1016.5
20260906034107 23 69 1.6 8.0 0.00 0.00 0.00 92 1016.2
20260906033602 23 58 3.2 6.4 0.00 0.00 0.00 93 1016.3
20260906033057 23 0 0.0 4.8 0.00 0.00 0.00 93 1016.4
20260906032554 23 25 0.0 1.6 0.00 0.00 0.00 93 1016.3
20260906032053 23 73 0.0 3.2 0.00 0.00 0.00 93 1016.4
20260906031549 23 0 0.0 3.2 0.00 0.00 0.00 94 1016.3
20260906031045 23 343 0.0 3.2 0.00 0.00 0.00 94 1016.3
20260906030544 23 354 0.0 3.2 0.00 0.00 0.00 94 1016.0
20260906030043 22 334 0.0 3.2 0.00 0.00 0.00 94 1016.2
20260906025538 22 315 0.0 3.2 0.00 0.00 0.00 94 1016.1
20260906025036 22 48 0.0 3.2 0.00 0.00 0.00 94 1016.0
20260906024532 22 304 0.0 1.6 0.00 0.00 0.00 94 1015.9
20260906024031 22 62 0.0 0.0 0.00 0.00 0.00 94 1016.0
20260906023528 22 63 0.0 3.2 0.00 0.00 0.00 94 1015.9
20260906023023 22 180 0.0 0.0 0.00 0.00 0.00 94 1016.1
20260906022518 22 122 3.2 4.8 0.00 0.00 0.00 94 1015.8
20260906022013 23 52 0.0 4.8 0.00 0.00 0.00 93 1015.8
20260906021508 23 99 0.0 6.4 0.00 0.00 0.00 93 1015.5
20260906021002 23 73 4.8 8.0 0.00 0.00 0.00 93 1015.5
20260906020456 23 75 3.2 4.8 0.00 0.00 0.00 93 1015.5
20260906015955 23 96 3.2 4.8 0.00 0.00 0.00 92 1015.5
20260906015450 23 66 8.0 11.3 0.00 0.00 0.00 92 1015.6
20260906014950 23 94 6.4 9.7 0.00 0.00 0.00 92 1015.4
20260906014449 23 52 3.2 8.0 0.00 0.00 0.00 92 1015.3
20260906013946 23 85 0.0 11.3 0.00 0.00 0.00 92 1015.2
20260906013441 23 113 1.6 8.0 0.00 0.00 0.00 91 1015.2
20260906012936 23 87 4.8 11.3 0.00 0.00 0.00 91 1015.1
20260906012431 23 44 4.8 8.0 0.00 0.00 0.00 91 1015.0
20260906011930 23 84 6.4 8.0 0.00 0.00 0.00 91 1015.1
20260906011426 23 102 1.6 9.7 0.00 0.00 0.00 91 1015.1
20260906010921 23 39 3.2 11.3 0.00 0.00 0.00 90 1015.1
20260906010417 24 57 4.8 12.9 0.00 0.00 0.00 90 1015.1
20260906005913 24 43 8.0 9.7 0.00 0.00 0.00 90 1015.4
20260906005412 24 48 4.8 12.9 0.00 0.00 0.00 91 1015.3
20260906004910 24 81 4.8 14.5 0.00 0.00 0.00 90 1015.2
20260906004405 25 84 8.0 14.5 0.00 0.00 0.00 89 1015.2
20260906003900 25 64 8.0 12.9 0.00 0.00 0.00 88 1015.3
20260906003356 25 38 11.3 11.3 0.00 0.00 0.00 87 1015.3
20260906002851 25 27 8.0 14.5 0.00 0.00 0.00 86 1015.4
20260906002350 25 71 11.3 12.9 0.00 0.00 0.00 85 1015.3
20260906001846 26 62 8.0 16.1 0.00 0.00 0.00 85 1015.1
20260906001342 26 62 4.8 14.5 0.00 0.00 0.00 84 1015.3
20260906000836 26 99 4.8 14.5 0.00 0.00 0.00 84 1015.5
20260906000333 26 31 3.2 12.9 0.00 0.00 0.00 84 1015.5
20260905235831 26 40 3.2 9.7 0.00 0.00 0.00 84 1015.2
20260905235326 27 75 6.4 16.1 0.00 0.00 0.00 84 1015.4
20260905234821 27 46 8.0 20.9 0.00 0.00 0.00 83 1015.1
20260905234316 27 73 9.7 16.1 0.00 0.00 0.00 82 1015.1
20260905233811 27 105 6.4 20.9 0.00 0.00 0.00 82 1015.0
20260905233306 28 73 6.4 17.7 0.00 0.00 0.00 81 1015.1
20260905232804 28 60 8.0 16.1 0.00 0.00 0.00 81 1014.9
20260905232300 28 59 3.2 30.6 0.00 0.00 0.00 81 1014.9
20260905231751 28 59 8.0 19.3 0.00 0.00 0.00 81 1014.9
20260905231246 28 77 8.0 16.1 0.00 0.00 0.00 81 1014.9
20260905230742 29 105 1.6 11.3 0.00 0.00 0.00 80 1014.7
20260905230240 28 74 6.4 14.5 0.00 0.00 0.00 80 1014.9
20260905225740 29 242 1.6 14.5 0.00 0.00 0.00 80 1014.8
20260905225235 29 358 6.4 12.9 0.00 0.00 0.00 80 1014.8
20260905224734 29 350 1.6 16.1 0.00 0.00 0.00 80 1015.2
20260905224230 30 334 9.7 14.5 0.00 0.00 0.00 79 1015.1
20260905223726 29 39 4.8 16.1 0.00 0.00 0.00 80 1015.0
20260905223223 30 76 4.8 17.7 0.00 0.00 0.00 79 1015.0
20260905222718 30 53 6.4 17.7 0.00 0.00 0.00 79 1015.0
20260905222217 30 19 9.7 11.3 0.00 0.00 0.00 78 1014.9
20260905221713 30 340 3.2 12.9 0.00 0.00 0.00 77 1014.7
20260905221210 30 41 6.4 12.9 0.00 0.00 0.00 77 1014.9
20260905220705 30 0 9.7 16.1 0.00 0.00 0.00 77 1014.7
20260905220201 30 66 4.8 16.1 0.00 0.00 0.00 77 1014.7
20260905215700 30 4 6.4 17.7 0.00 0.00 0.00 78 1014.5
20260905215156 30 32 11.3 17.7 0.00 0.00 0.00 78 1014.9
20260905214652 30 357 6.4 12.9 0.00 0.00 0.00 78 1014.7
20260905214147 30 72 4.8 16.1 0.00 0.00 0.00 78 1015.0
20260905213642 30 55 9.7 12.9 0.00 0.00 0.00 77 1014.9
20260905213138 31 35 6.4 12.9 0.00 0.00 0.00 76 1014.9
20260905212633 30 355 1.6 12.9 0.00 0.00 0.00 78 1014.7
20260905212132 31 54 6.4 16.1 0.00 0.00 0.00 76 1014.6
20260905211627 31 34 6.4 16.1 0.00 0.00 0.00 77 1014.6
20260905211123 31 43 6.4 22.5 0.00 0.00 0.00 77 1014.6
20260905210619 31 54 8.0 17.7 0.00 0.00 0.00 76 1014.3
20260905210114 31 72 9.7 19.3 0.00 0.00 0.00 76 1014.3
20260905205613 32 15 6.4 12.9 0.00 0.00 0.00 75 1014.5
20260905205112 32 65 17.7 20.9 0.00 0.00 0.00 75 1014.5
20260905204606 32 1 4.8 19.3 0.00 0.00 0.00 75 1014.8
20260905204101 32 331 0.0 17.7 0.00 0.00 0.00 76 1014.6
20260905203556 32 25 6.4 17.7 0.00 0.00 0.00 77 1014.6
20260905203052 31 91 8.0 19.3 0.00 0.00 0.00 77 1014.8
20260905202547 32 39 6.4 19.3 0.00 0.00 0.00 75 1014.6
20260905202042 33 349 1.6 9.7 0.00 0.00 0.00 72 1014.8
20260905201538 32 48 4.8 11.3 0.00 0.00 0.00 73 1014.6
20260905201037 33 32 6.4 22.5 0.00 0.00 0.00 72 1014.8
20260905200533 33 75 9.7 14.5 0.00 0.00 0.00 72 1014.8
20260905200032 32 41 1.6 9.7 0.00 0.00 0.00 73 1014.6
20260905195526 32 324 4.8 19.3 0.00 0.00 0.00 71 1014.7
20260905195022 33 39 4.8 11.3 0.00 0.00 0.00 68 1014.4
20260905194521 33 55 6.4 9.7 0.00 0.00 0.00 68 1014.7
20260905194015 33 65 11.3 17.7 0.00 0.00 0.00 68 1014.9
20260905193510 33 57 4.8 14.5 0.00 0.00 0.00 70 1014.8
20260905193005 33 292 3.2 16.1 0.00 0.00 0.00 70 1014.5
20260905192500 33 47 6.4 16.1 0.00 0.00 0.00 68 1014.8
20260905191956 33 357 0.0 6.4 0.00 0.00 0.00 69 1014.8
20260905191455 33 38 1.6 8.0 0.00 0.00 0.00 70 1014.8
20260905190954 33 287 6.4 11.3 0.00 0.00 0.00 70 1014.9
20260905190452 34 68 4.8 9.7 0.00 0.00 0.00 68 1014.9
20260905185951 34 32 3.2 6.4 0.00 0.00 0.00 68 1014.8
20260905185447 33 289 3.2 8.0 0.00 0.00 0.00 72 1014.9
20260905184945 32 53 3.2 11.3 0.00 0.00 0.00 74 1015.1
20260905184440 32 21 3.2 9.7 0.00 0.00 0.00 72 1014.9
20260905183938 33 76 4.8 9.7 0.00 0.00 0.00 70 1015.0
20260905183433 33 350 1.6 8.0 0.00 0.00 0.00 70 1014.9
20260905182928 33 37 1.6 17.7 0.00 0.00 0.00 69 1015.0
20260905182427 33 13 4.8 11.3 0.00 0.00 0.00 70 1014.9
20260905181923 33 30 0.0 8.0 0.00 0.00 0.00 71 1014.9
20260905181418 33 314 3.2 9.7 0.00 0.00 0.00 71 1014.9
20260905180918 33 46 3.2 6.4 0.00 0.00 0.00 71 1015.0
20260905180413 33 340 1.6 8.0 0.00 0.00 0.00 71 1015.0
20260905175913 33 243 4.8 9.7 0.00 0.00 0.00 70 1015.2
20260905175412 33 347 3.2 6.4 0.00 0.00 0.00 70 1015.3
20260905174907 33 41 4.8 12.9 0.00 0.00 0.00 71 1015.1
20260905174403 33 320 3.2 11.3 0.00 0.00 0.00 70 1015.0
20260905173858 32 67 4.8 11.3 0.00 0.00 0.00 71 1015.4
20260905173355 33 6 0.0 8.0 0.00 0.00 0.00 71 1015.2
20260905172849 34 43 14.5 14.5 0.00 0.00 0.00 68 1015.4
20260905172347 33 145 4.8 6.4 0.00 0.00 0.00 70 1015.1
20260905171843 32 19 1.6 8.0 0.00 0.00 0.00 71 1015.4
20260905171340 33 1 4.8 12.9 0.00 0.00 0.00 70 1015.6
20260905170836 32 116 3.2 12.9 0.00 0.00 0.00 72 1015.6
20260905170332 33 204 0.0 11.3 0.00 0.00 0.00 70 1015.4
20260905165831 33 105 4.8 11.3 0.00 0.00 0.00 72 1015.6
20260905165327 32 105 4.8 11.3 0.00 0.00 0.00 72 1015.6
20260905164826 32 17 1.6 8.0 0.00 0.00 0.00 72 1015.5
20260905164321 32 357 0.0 11.3 0.00 0.00 0.00 73 1015.7
20260905163817 33 20 4.8 9.7 0.00 0.00 0.00 72 1015.5
20260905163313 32 58 6.4 8.0 0.00 0.00 0.00 72 1015.6
20260905162809 32 55 6.4 11.3 0.00 0.00 0.00 73 1015.5
20260905162309 32 114 1.6 11.3 0.00 0.00 0.00 72 1015.6
20260905161803 32 287 3.2 12.9 0.00 0.00 0.00 73 1015.5
20260905161303 32 79 3.2 11.3 0.00 0.00 0.00 72 1015.1
20260905160801 31 17 4.8 11.3 0.00 0.00 0.00 75 1015.6
20260905160255 31 52 6.4 9.7 0.00 0.00 0.00 74 1015.4
20260905155750 32 67 8.0 16.1 0.00 0.00 0.00 73 1015.3